Location: Riverside Cemetery
(38.3047°N, 99.7773°W)
Time: 02:33:12
(UTC+00:00)

CZ-2C R/B - Pass Details

Date: 19 September 2020
Orbit: 391 x 588 km, 35.0° (Epoch: 22 October)

Event Time Altitude Azimuth Distance (km) Brightness Sun altitude
Rises 01:12:47 0° 247° (WSW) 2,507 5.9 -7.0°
Reaches altitude 10° 01:15:07 10° 240° (WSW) 1,593 4.6 -7.4°
Maximum altitude 01:18:31 39° 170° (S) 669 1.6 -8.1°
Enters shadow 01:21:26 12° 102° (ESE) 1,391 2.7 -8.6°
